GW6405 Weather Reports


time (UTC)temp
F
wind
direction
speed
knots
gust
knots
rain 1hr
in
rain 24hr
in
rain mn
in
humidity
%
barometer
mb
20260506122946 66 170 0.0 0.0 0.00 0.00 0.00 92 1016.7
20260506122443 66 176 0.0 0.0 0.00 0.00 0.00 92 1016.8
20260506121941 66 194 0.0 0.0 0.00 0.00 0.00 92 1016.9
20260506121438 66 201 0.0 0.0 0.00 0.00 0.00 91 1016.6
20260506120935 66 142 0.0 0.0 0.00 0.00 0.00 91 1017.0
20260506120432 66 159 0.0 0.0 0.00 0.00 0.00 91 1016.8
20260506115929 66 140 0.0 0.0 0.00 0.00 0.00 91 1016.7
20260506115427 65 145 0.0 0.0 0.00 0.00 0.00 92 1016.5
20260506114925 65 139 0.0 0.0 0.00 0.00 0.00 92 1016.6
20260506114423 65 138 0.0 0.0 0.00 0.00 0.00 92 1016.5
20260506113921 64 141 0.0 0.0 0.00 0.00 0.00 92 1016.5
20260506113418 64 141 0.0 0.0 0.00 0.00 0.00 92 1016.3
20260506112914 64 136 0.0 0.0 0.00 0.00 0.00 92 1016.4
20260506112412 64 136 0.0 0.0 0.00 0.00 0.00 92 1016.4
20260506111909 64 155 0.0 0.0 0.00 0.00 0.00 92 1016.5
20260506111407 64 136 0.0 0.0 0.00 0.00 0.00 92 1016.6
20260506110904 64 141 0.0 0.0 0.00 0.00 0.00 92 1016.4
20260506110402 64 150 0.0 0.0 0.00 0.00 0.00 92 1016.3
20260506105858 64 173 0.0 0.0 0.00 0.00 0.00 92 1016.3
20260506105354 64 175 0.0 0.0 0.00 0.00 0.00 92 1016.4
20260506104852 64 149 0.0 0.0 0.00 0.00 0.00 92 1016.3
20260506104350 64 158 0.0 0.0 0.00 0.00 0.00 92 1016.1
20260506103847 64 143 0.0 0.0 0.00 0.00 0.00 91 1016.0
20260506103345 63 143 0.0 0.0 0.00 0.00 0.00 91 1015.9
20260506102842 63 187 0.0 0.0 0.00 0.00 0.00 91 1015.9
20260506102340 63 174 0.0 0.0 0.00 0.00 0.00 91 1015.7
20260506101837 63 136 0.0 0.0 0.00 0.00 0.00 91 1015.7
20260506101333 63 167 0.0 0.0 0.00 0.00 0.00 91 1015.5
20260506100831 63 143 0.0 0.0 0.00 0.00 0.00 91 1015.5
20260506100329 63 172 0.0 0.0 0.00 0.00 0.00 90 1015.4
20260506095827 63 137 0.0 0.0 0.00 0.00 0.00 90 1015.4
20260506095323 63 137 0.0 0.0 0.00 0.00 0.00 90 1015.3
20260506094820 63 146 0.0 0.0 0.00 0.00 0.00 90 1015.5
20260506094319 63 140 0.0 0.0 0.00 0.00 0.00 90 1015.5
20260506093817 63 147 0.0 0.0 0.00 0.00 0.00 90 1015.4
20260506093313 63 148 0.0 0.0 0.00 0.00 0.00 90 1015.4
20260506092812 63 145 0.0 0.0 0.00 0.00 0.00 90 1015.2
20260506092309 63 128 0.0 0.0 0.00 0.00 0.00 89 1015.1
20260506091806 63 147 0.0 0.0 0.00 0.00 0.00 89 1015.1
20260506091303 63 122 0.0 0.0 0.00 0.00 0.00 89 1015.0
20260506090801 63 142 0.0 0.0 0.00 0.00 0.00 88 1015.0
20260506090258 63 145 0.0 0.0 0.00 0.00 0.00 88 1015.0
20260506085755 63 147 0.0 0.0 0.00 0.00 0.00 88 1015.2
20260506085251 63 164 0.0 0.0 0.00 0.00 0.00 88 1015.1
20260506084748 63 155 0.0 0.0 0.00 0.00 0.00 87 1015.2
20260506084244 63 142 0.0 0.0 0.00 0.00 0.00 87 1015.1
20260506083741 63 141 0.0 0.0 0.00 0.00 0.00 86 1015.1
20260506083239 63 139 0.0 0.0 0.00 0.00 0.00 86 1015.2
20260506082736 63 146 0.0 0.0 0.00 0.00 0.00 86 1015.1
20260506082231 63 142 0.0 0.0 0.00 0.00 0.00 86 1015.0
20260506081730 63 135 0.0 0.0 0.00 0.00 0.00 85 1015.1
20260506081227 63 139 0.0 0.0 0.00 0.00 0.00 85 1015.2
20260506080725 63 141 0.0 0.0 0.00 0.00 0.00 85 1015.2
20260506080221 63 141 0.0 0.0 0.00 0.00 0.00 84 1015.5
20260506073205 62 129 0.0 0.0 0.00 0.00 0.00 83 1015.3
20260506072701 62 127 0.0 0.0 0.00 0.00 0.00 81 1015.2
20260506072159 62 128 0.0 0.0 0.00 0.00 0.00 80 1015.5
20260506071656 62 125 0.0 0.0 0.00 0.00 0.00 79 1015.5
20260506071154 62 125 0.0 0.0 0.00 0.00 0.00 79 1015.7
20260506070651 61 125 0.0 0.0 0.00 0.00 0.00 78 1015.6
20260506070148 61 125 0.0 0.0 0.00 0.00 0.00 78 1015.6
20260506062125 63 121 0.0 0.0 0.00 0.00 0.00 74 1015.8
20260506061621 63 129 0.0 0.0 0.00 0.00 0.00 75 1015.8
20260506061119 64 133 0.0 0.0 0.00 0.00 0.00 74 1016.1
20260506060617 64 149 0.0 0.0 0.00 0.00 0.00 72 1016.0
20260506060114 64 149 0.0 0.0 0.00 0.00 0.00 71 1015.9
20260506051046 66 166 0.0 0.0 0.00 0.00 0.00 66 1015.5
20260506050543 66 150 0.0 0.0 0.00 0.00 0.00 66 1015.5
20260506045034 66 141 0.0 0.0 0.00 0.00 0.00 65 1015.6
20260506044532 67 136 0.0 0.0 0.00 0.00 0.00 66 1015.7
20260506044028 67 149 0.0 0.0 0.00 0.00 0.00 64 1016.1
20260506043525 67 141 0.0 0.0 0.00 0.00 0.00 64 1015.8
20260506043024 67 148 0.0 0.0 0.00 0.00 0.00 65 1015.9
20260506042523 67 146 0.0 0.0 0.00 0.00 0.00 63 1015.9
20260506042020 67 162 0.0 0.0 0.00 0.00 0.00 62 1015.6
20260506041519 67 146 0.0 0.0 0.00 0.00 0.00 64 1015.5
20260506041015 67 143 0.0 0.0 0.00 0.00 0.00 63 1015.6
20260506040513 68 175 0.0 0.0 0.00 0.00 0.00 63 1015.7
20260506040009 68 159 0.0 0.0 0.00 0.00 0.00 61 1015.7
20260506035506 67 172 0.0 0.0 0.00 0.00 0.00 61 1015.6
20260506035002 67 140 0.0 0.0 0.00 0.00 0.00 63 1015.7
20260506034500 68 140 0.0 0.0 0.00 0.00 0.00 63 1015.8
20260506033957 68 187 0.0 0.0 0.00 0.00 0.00 62 1016.1
20260506033454 68 187 0.0 0.0 0.00 0.00 0.00 61 1015.9
20260506032951 68 181 0.0 0.0 0.00 0.00 0.00 61 1015.9
20260506032448 67 141 0.0 0.0 0.00 0.00 0.00 64 1015.9
20260506031944 67 162 0.0 0.0 0.00 0.00 0.00 64 1016.0
20260506031442 67 148 0.0 0.0 0.00 0.00 0.00 66 1015.8
20260506030940 66 148 0.0 0.0 0.00 0.00 0.00 70 1015.8
20260506030437 67 148 0.0 0.0 0.00 0.00 0.00 72 1015.8
20260506025934 67 149 0.0 0.0 0.00 0.00 0.00 71 1015.9
20260506025431 67 149 0.0 0.0 0.00 0.00 0.00 64 1015.8
20260506024928 68 149 0.0 0.0 0.00 0.00 0.00 61 1015.9
20260506024425 68 149 0.0 0.0 0.00 0.00 0.00 60 1015.7
20260506023920 68 160 0.0 0.0 0.00 0.00 0.00 59 1015.9
20260506023418 68 151 0.0 0.0 0.00 0.00 0.00 58 1015.6
20260506022914 69 157 0.0 0.0 0.00 0.00 0.00 59 1015.8
20260506022412 69 145 0.0 0.0 0.00 0.00 0.00 59 1015.6
20260506021910 69 151 0.0 0.0 0.00 0.00 0.00 59 1015.9
20260506021407 69 160 0.0 0.0 0.00 0.00 0.00 59 1015.9
20260506020903 69 161 0.0 0.0 0.00 0.00 0.00 59 1015.8
20260506020401 69 166 0.0 0.0 0.00 0.00 0.00 64 1015.8
20260506015858 69 149 0.0 0.0 0.00 0.00 0.00 62 1015.7
20260506015356 69 147 0.0 0.0 0.00 0.00 0.00 61 1015.8
20260506014852 69 151 0.0 0.0 0.00 0.00 0.00 58 1015.8
20260506014349 69 154 0.0 0.0 0.00 0.00 0.00 57 1015.7
20260506013846 69 162 0.0 0.0 0.00 0.00 0.00 57 1015.9
20260506013344 68 146 0.0 0.0 0.00 0.00 0.00 62 1015.7
20260506012840 68 146 0.0 0.0 0.00 0.00 0.00 63 1015.8
20260506012337 69 145 0.0 0.0 0.00 0.00 0.00 64 1015.7
20260506011834 69 149 0.0 0.0 0.00 0.00 0.00 66 1015.7
20260506011331 69 153 0.0 0.0 0.00 0.00 0.00 63 1015.7
20260506010828 69 142 0.0 0.0 0.00 0.00 0.00 57 1015.5
20260506010326 70 141 0.0 0.0 0.00 0.00 0.00 54 1015.4
20260506005823 70 141 0.0 0.0 0.00 0.00 0.00 54 1015.6
20260506005319 71 142 0.0 0.0 0.00 0.00 0.00 53 1015.6
20260506004815 71 141 0.0 0.0 0.00 0.00 0.00 53 1015.4
20260506004313 71 141 0.0 0.0 0.00 0.00 0.00 53 1015.5
20260506003809 72 142 0.0 0.0 0.00 0.00 0.00 53 1016.1
20260506003306 73 148 0.0 0.0 0.00 0.00 0.00 56 1015.9
20260506002802 73 152 0.0 0.0 0.00 0.00 0.00 55 1015.9
20260506002258 73 147 0.0 0.0 0.00 0.00 0.00 55 1015.8
20260506001754 73 146 0.0 0.0 0.00 0.00 0.00 53 1015.7
20260506001252 74 149 0.0 0.0 0.00 0.00 0.00 51 1015.6
20260506000748 74 153 0.0 0.0 0.00 0.00 0.00 50 1015.7
20260506000247 74 147 0.0 0.0 0.00 0.00 0.00 50 1015.6
20260505235743 74 162 0.9 2.6 0.00 0.00 0.00 49 1015.8
20260505235240 75 180 0.0 0.0 0.00 0.00 0.00 51 1015.6
20260505234737 75 154 0.0 0.0 0.00 0.00 0.00 48 1015.5
20260505234235 75 206 0.0 4.3 0.00 0.00 0.00 47 1015.6
20260505233731 75 192 0.0 0.0 0.00 0.00 0.00 49 1015.5
20260505233229 76 151 0.0 2.6 0.00 0.00 0.00 48 1015.6
20260505232726 76 142 0.0 2.6 0.00 0.00 0.00 47 1015.6
20260505232224 76 182 0.0 0.0 0.00 0.00 0.00 46 1015.6
20260505231720 76 196 0.0 4.3 0.00 0.00 0.00 47 1015.6
20260505231219 76 165 1.7 4.3 0.00 0.00 0.00 46 1015.6
20260505230717 76 157 0.0 0.0 0.00 0.00 0.00 46 1015.6
20260505230213 77 187 2.6 4.3 0.00 0.00 0.00 45 1015.4
20260505225709 77 215 2.6 4.3 0.00 0.00 0.00 45 1015.3
20260505225207 77 150 0.9 6.1 0.00 0.00 0.00 46 1015.5
20260505224702 77 172 0.0 4.3 0.00 0.00 0.00 47 1015.4
20260505224200 77 182 1.7 6.1 0.00 0.00 0.00 45 1015.3
20260505223657 77 177 2.6 4.3 0.00 0.00 0.00 44 1015.2
20260505223153 77 199 4.3 6.1 0.00 0.00 0.00 44 1015.3
20260505222649 77 198 6.1 8.7 0.00 0.00 0.00 44 1015.5
20260505222146 77 190 4.3 8.7 0.00 0.00 0.00 42 1015.4
20260505221643 78 204 1.7 6.1 0.00 0.00 0.00 44 1015.2
20260505221139 78 133 0.9 6.1 0.00 0.00 0.00 44 1015.2
20260505220637 78 229 3.5 6.1 0.00 0.00 0.00 44 1015.1
20260505220134 78 104 2.6 8.7 0.00 0.00 0.00 45 1015.2
20260505215632 78 154 5.2 6.1 0.00 0.00 0.00 43 1015.3
20260505215130 78 180 3.5 6.1 0.00 0.00 0.00 44 1015.1
20260505214628 78 201 1.7 4.3 0.00 0.00 0.00 44 1015.0
20260505214124 78 207 1.7 8.7 0.00 0.00 0.00 44 1015.4
20260505213622 78 162 1.7 6.1 0.00 0.00 0.00 43 1015.3
20260505213118 78 207 2.6 8.7 0.00 0.00 0.00 43 1015.4
20260505212614 78 150 2.6 4.3 0.00 0.00 0.00 44 1015.4
20260505212113 78 164 0.0 4.3 0.00 0.00 0.00 42 1015.4
20260505211609 78 145 2.6 6.1 0.00 0.00 0.00 43 1015.5
20260505211106 78 166 3.5 6.1 0.00 0.00 0.00 43 1015.4
20260505210602 78 173 0.0 0.0 0.00 0.00 0.00 43 1015.6
20260505210100 79 170 2.6 6.1 0.00 0.00 0.00 43 1015.7
20260505205557 79 219 0.9 6.1 0.00 0.00 0.00 44 1015.3
20260505205055 78 189 2.6 6.1 0.00 0.00 0.00 44 1015.5
20260505204552 78 19 0.0 4.3 0.00 0.00 0.00 45 1015.6
20260505204049 78 171 0.9 4.3 0.00 0.00 0.00 43 1015.5
20260505203545 78 135 2.6 8.7 0.00 0.00 0.00 43 1015.5
20260505203043 78 147 0.0 0.0 0.00 0.00 0.00 43 1015.7
20260505202539 78 203 4.3 6.1 0.00 0.00 0.00 44 1015.9
20260505202035 78 112 1.7 4.3 0.00 0.00 0.00 45 1015.8
20260505201532 79 202 0.0 2.6 0.00 0.00 0.00 44 1016.1
20260505201030 79 256 0.9 6.1 0.00 0.00 0.00 42 1016.0
20260505200527 80 94 1.7 4.3 0.00 0.00 0.00 40 1016.2
20260505200024 80 152 1.7 8.7 0.00 0.00 0.00 42 1016.1
20260505195520 81 100 0.0 2.6 0.00 0.00 0.00 41 1016.0
20260505195018 81 132 4.3 6.1 0.00 0.00 0.00 41 1016.0
20260505194515 81 142 0.0 6.1 0.00 0.00 0.00 40 1016.2
20260505194016 80 169 2.6 8.7 0.00 0.00 0.00 40 1016.3
20260505193513 80 169 0.9 4.3 0.00 0.00 0.00 42 1016.2
20260505193010 80 172 3.5 4.3 0.00 0.00 0.00 43 1016.4
20260505192509 80 120 2.6 6.1 0.00 0.00 0.00 40 1016.3
20260505192006 80 152 0.0 4.3 0.00 0.00 0.00 42 1016.3
20260505191504 79 180 2.6 4.3 0.00 0.00 0.00 43 1016.6
20260505191002 80 192 0.9 4.3 0.00 0.00 0.00 41 1016.4
20260505190456 79 137 1.7 4.3 0.00 0.00 0.00 44 1016.5
20260505185952 78 154 1.7 10.4 0.00 0.00 0.00 44 1016.6
20260505185450 79 202 0.0 6.1 0.00 0.00 0.00 43 1016.7
20260505184946 79 199 5.2 8.7 0.00 0.00 0.00 41 1017.0
20260505184442 80 170 2.6 4.3 0.00 0.00 0.00 39 1017.0
20260505183939 79 139 2.6 4.3 0.00 0.00 0.00 44 1017.2
20260505183436 80 174 0.9 4.3 0.00 0.00 0.00 47 1017.0
20260505182933 80 158 1.7 4.3 0.00 0.00 0.00 42 1017.2
20260505182430 81 147 0.0 2.6 0.00 0.00 0.00 42 1017.0
20260505181926 78 145 0.9 4.3 0.00 0.00 0.00 44 1017.4
20260505181424 78 169 2.6 6.1 0.00 0.00 0.00 44 1017.4
20260505180920 80 195 1.7 4.3 0.00 0.00 0.00 45 1017.6
20260505180416 78 249 2.6 6.1 0.00 0.00 0.00 43 1017.6
20260505175913 78 177 2.6 4.3 0.00 0.00 0.00 42 1017.9
20260505175410 78 205 4.3 6.1 0.00 0.00 0.00 43 1017.9
20260505174906 79 153 0.9 4.3 0.00 0.00 0.00 43 1018.0
20260505174404 79 184 2.6 4.3 0.00 0.00 0.00 43 1017.9
20260505173900 80 203 3.5 6.1 0.00 0.00 0.00 44 1017.9
20260505173356 79 201 1.7 4.3 0.00 0.00 0.00 43 1017.9
20260505172853 78 189 1.7 6.1 0.00 0.00 0.00 45 1018.3
20260505172351 78 217 4.3 8.7 0.00 0.00 0.00 44 1018.0
20260505171850 79 195 0.0 2.6 0.00 0.00 0.00 46 1017.9
20260505171347 79 206 4.3 6.1 0.00 0.00 0.00 45 1018.0
20260505170844 78 157 1.7 4.3 0.00 0.00 0.00 48 1018.2
20260505170341 76 151 1.7 4.3 0.00 0.00 0.00 46 1018.1
20260505165836 77 131 3.5 8.7 0.00 0.00 0.00 47 1018.2
20260505165332 78 199 1.7 4.3 0.00 0.00 0.00 46 1018.2
20260505164828 77 158 5.2 6.1 0.00 0.00 0.00 48 1018.2
20260505164325 77 213 1.7 6.1 0.00 0.00 0.00 47 1018.1
20260505163823 78 228 3.5 6.1 0.00 0.00 0.00 45 1018.2
20260505163322 80 174 0.0 4.3 0.00 0.00 0.00 45 1018.1
20260505162819 78 123 0.0 0.0 0.00 0.00 0.00 49 1018.3
20260505162315 77 143 1.7 6.1 0.00 0.00 0.00 50 1018.2
20260505161813 80 96 0.9 2.6 0.00 0.00 0.00 47 1018.0
20260505161310 78 178 1.7 2.6 0.00 0.00 0.00 49 1018.3
20260505160807 78 145 0.0 6.1 0.00 0.00 0.00 47 1018.3
20260505160305 78 169 1.7 4.3 0.00 0.00 0.00 49 1018.3
20260505153244 75 165 1.7 6.1 0.00 0.00 0.00 52 1018.7
20260505152742 74 236 0.0 8.7 0.00 0.00 0.00 56 1018.9
20260505152238 74 218 3.5 4.3 0.00 0.00 0.00 53 1018.7
20260505151737 76 203 2.6 4.3 0.00 0.00 0.00 51 1018.6
20260505151235 74 169 2.6 4.3 0.00 0.00 0.00 55 1018.5
20260505150732 74 232 3.5 4.3 0.00 0.00 0.00 55 1018.7
20260505150230 79 145 0.0 0.0 0.00 0.00 0.00 50 1018.5
20260505140200 79 148 0.0 0.0 0.00 0.00 0.00 51 1018.1
20260505130123 72 135 0.0 0.0 0.00 0.00 0.00 61 1017.4
20260505124613 72 97 0.0 0.0 0.00 0.00 0.00 60 1017.2
20260505124109 71 102 0.0 0.0 0.00 0.00 0.00 63 1017.3
20260505123605 69 112 0.0 0.0 0.00 0.00 0.00 68 1017.3